Location: Tel Aviv
(32.0670°N, 34.7670°E)
Time: 12:44:31
(UTC+02:00)

Hubble Space Telescope - Visible Passes

Search period start: 29 November 2022 00:00
Search period end: 09 December 2022 00:00
Orbit: 530 x 534 km, 28.5° (Epoch: 28 November)

Date Brightness Start Highest point End Pass type
(mag) Time Alt. Az. Time Alt. Az. Time Alt. Az.
06 Dec 3.6 04:16:32 10° S 04:17:34 11° SSE 04:18:35 10° SE visible
06 Dec 2.5 05:54:28 10° SW 05:58:04 30° SSE 06:01:41 10° ESE visible
07 Dec 3.4 04:04:42 13° SSE 04:04:49 13° SSE 04:06:52 10° SE visible
07 Dec 2.2 05:41:39 10° SW 05:45:24 34° SSE 05:49:07 10° E visible
08 Dec 3.5 03:53:17 15° SE 03:53:17 15° SE 03:54:43 10° ESE visible
08 Dec 1.9 05:28:54 10° WSW 05:32:43 39° S 05:36:32 10° E visible
